Weather History for Ogallala, NE

Change the Weather History Date:

Saturday, April 27, 2013

  Actual Average Record
Temperature  
Mean Temperature 56 °F -  
Max Temperature 81 °F 64 °F 93 °F (1987)
Min Temperature 33 °F 37 °F 22 °F (1971)
Degree Days  
Heating Degree Days 8    
Growing Degree Days 6 (Base 50)    
Moisture  
Dew Point 25 °F    
Average Humidity 33    
Maximum Humidity 79    
Minimum Humidity 9    
Precipitation  
Precipitation 0.00 in - - ()
Sea Level Pressure  
Sea Level Pressure 30.03 in    
Wind  
Wind Speed 4 mph (WNW)    
Max Wind Speed 15 mph    
Max Gust Speed 22 mph    
Visibility 10 miles    
Events      
Averages and records for this station are not official NWS values.
T = Trace of Precipitation, MM = Missing Value Source: NWS Daily Summary

Daily Weather History Graph

Daily Weather History Graph

Search for Another Location

Airport:

Trip Planner

Search our weather history database for the weather conditions in past years. The results will help you decide how hot, cold, wet, or windy it might be!

Date:

Astronomy

Apr. 27, 2013 Rise Set
Actual Time 5:49 AM MDT 7:40 PM MDT
Civil Twilight 5:20 AM MDT 8:09 PM MDT
Nautical Twilight 4:44 AM MDT 8:45 PM MDT
Astronomical Twilight 4:05 AM MDT 9:24 PM MDT
Moon 10:12 PM MDT (4/27) 7:09 AM MDT (4/27)
Length of Visible Light 14h 49m
Length of Day
13h 50m
Waning Gibbous, 95% of the Moon is Illuminated
Apr 27
Waning Gibbous
May 2
Last Quarter
May 9
New
May 17
First Quarter
May 24
Full

Hourly Weather History & Observations

Time (MDT) Temp. Windchill Dew Point Humidity Pressure Visibility Wind Dir Wind Speed Gust Speed Precip Events Conditions
12:15 AM 51.3 °F - 25.7 °F 37% 30.18 in 10.0 mi Calm Calm - N/A   Clear
12:35 AM 51.4 °F - 25.5 °F 37% 30.18 in 10.0 mi Calm Calm - N/A   Clear
12:55 AM 51.8 °F - 25.7 °F 36% 30.18 in 10.0 mi South 5.8 mph - N/A   Clear
1:15 AM 50.4 °F - 25.7 °F 38% 30.17 in 10.0 mi SSW 4.6 mph - N/A   Clear
1:35 AM 48.7 °F - 26.1 °F 41% 30.17 in 10.0 mi WSW 3.5 mph - N/A   Clear
1:55 AM 47.5 °F - 26.8 °F 45% 30.16 in 10.0 mi West 3.5 mph - N/A   Clear
2:15 AM 44.1 °F 41.5 °F 27.3 °F 52% 30.16 in 10.0 mi West 4.6 mph - N/A   Clear
2:35 AM 46.9 °F - 28.0 °F 48% 30.15 in 10.0 mi West 8.1 mph - N/A   Clear
2:55 AM 43.0 °F 40.3 °F 27.3 °F 54% 30.15 in 10.0 mi WSW 4.6 mph - N/A   Clear
3:15 AM 41.0 °F - 28.6 °F 61% 30.15 in 10.0 mi Calm Calm - N/A   Clear
3:35 AM 40.1 °F - 28.2 °F 63% 30.14 in 10.0 mi Calm Calm - N/A   Clear
3:55 AM 39.2 °F - 28.2 °F 65% 30.14 in 10.0 mi Calm Calm - N/A   Clear
4:15 AM 40.3 °F - 30.0 °F 67% 30.14 in 10.0 mi Calm Calm - N/A   Clear
5:35 AM 36.1 °F - 29.7 °F 77% 30.12 in 10.0 mi Calm Calm - N/A   Clear
5:55 AM 36.0 °F - 29.1 °F 76% 30.12 in 10.0 mi Calm Calm - N/A   Clear
6:15 AM 36.9 °F - 29.8 °F 76% 30.13 in 10.0 mi Calm Calm - N/A   Clear
6:35 AM 33.6 °F - 27.9 °F 79% 30.12 in 10.0 mi Calm Calm - N/A   Clear
6:55 AM 37.4 °F - 30.6 °F 76% 30.12 in 10.0 mi Calm Calm - N/A   Clear
7:15 AM 41.0 °F - 31.8 °F 70% 30.12 in 10.0 mi Calm Calm - N/A   Clear
7:35 AM 44.1 °F - 32.4 °F 63% 30.12 in 10.0 mi Calm Calm - N/A   Clear
7:55 AM 46.9 °F - 32.7 °F 58% 30.11 in 10.0 mi Calm Calm - N/A   Clear
8:15 AM 51.4 °F - 32.2 °F 48% 30.11 in 10.0 mi Calm Calm - N/A   Clear
8:35 AM 54.5 °F - 32.0 °F 42% 30.11 in 10.0 mi Calm Calm - N/A   Clear
8:55 AM 57.4 °F - 29.7 °F 35% 30.10 in 10.0 mi WSW 6.9 mph - N/A   Clear
9:15 AM 60.4 °F - 30.4 °F 32% 30.09 in 10.0 mi WSW 6.9 mph - N/A   Clear
9:35 AM 62.6 °F - 31.1 °F 31% 30.09 in 10.0 mi WSW 4.6 mph - N/A   Clear
9:55 AM 65.8 °F - 31.3 °F 28% 30.08 in 10.0 mi Calm Calm - N/A   Clear
10:15 AM 69.1 °F - 29.7 °F 23% 30.08 in 10.0 mi SW 4.6 mph - N/A   Clear
10:35 AM 71.1 °F - 28.9 °F 21% 30.07 in 10.0 mi SW 9.2 mph - N/A   Clear
10:55 AM 73.6 °F - 28.2 °F 19% 30.07 in 10.0 mi WSW 3.5 mph - N/A   Clear
11:15 AM 74.3 °F - 26.2 °F 17% 30.06 in 10.0 mi SW 9.2 mph - N/A   Clear
11:35 AM 75.6 °F - 24.6 °F 15% 30.05 in 10.0 mi SW 10.4 mph - N/A   Clear
11:55 AM 75.2 °F - 19.0 °F 12% 30.04 in 10.0 mi West 9.2 mph - N/A   Clear
12:15 PM 77.2 °F - 19.6 °F 12% 30.04 in 10.0 mi West 5.8 mph - N/A   Clear
12:35 PM 77.0 °F - 20.7 °F 12% 30.02 in 10.0 mi NNW 6.9 mph - N/A   Clear
12:55 PM 78.8 °F - 19.9 °F 11% 30.01 in 10.0 mi WSW 9.2 mph - N/A   Clear
1:15 PM 77.5 °F - 20.5 °F 12% 30.00 in 10.0 mi West 9.2 mph - N/A   Clear
1:35 PM 78.6 °F - 21.0 °F 12% 30.00 in 10.0 mi SW 4.6 mph - N/A   Clear
1:55 PM 78.3 °F - 21.0 °F 12% 29.99 in 10.0 mi North 5.8 mph - N/A   Clear
2:15 PM 79.9 °F - 18.3 °F 10% 29.98 in 10.0 mi WNW 10.4 mph - N/A   Clear
2:35 PM 79.3 °F - 18.7 °F 10% 29.97 in 10.0 mi WSW 3.5 mph - N/A   Clear
2:55 PM 79.7 °F - 19.4 °F 11% 29.97 in 10.0 mi Calm Calm - N/A   Clear
3:15 PM 79.3 °F - 19.0 °F 11% 29.95 in 10.0 mi North 4.6 mph - N/A   Clear
3:35 PM 80.8 °F - 18.0 °F 10% 29.95 in 10.0 mi NW 9.2 mph 21.9 mph N/A   Clear
3:55 PM 80.8 °F - 16.0 °F 9% 29.94 in 10.0 mi NW 15.0 mph 19.6 mph N/A   Clear
4:15 PM 80.2 °F - 16.3 °F 9% 29.94 in 10.0 mi NW 12.7 mph 18.4 mph N/A   Clear
4:35 PM 79.9 °F - 17.8 °F 10% 29.93 in 10.0 mi NW 11.5 mph 17.3 mph N/A   Clear
4:55 PM 79.7 °F - 18.7 °F 10% 29.93 in 10.0 mi North 6.9 mph - N/A   Clear
5:15 PM 79.0 °F - 18.1 °F 10% 29.93 in 10.0 mi NNW 5.8 mph - N/A   Clear
5:35 PM 78.6 °F - 18.5 °F 11% 29.93 in 10.0 mi NW 8.1 mph - N/A   Clear
5:55 PM 77.9 °F - 17.4 °F 10% 29.93 in 10.0 mi NNW 9.2 mph - N/A   Clear
6:15 PM 76.8 °F - 19.0 °F 11% 29.93 in 10.0 mi North 5.8 mph - N/A   Clear
6:35 PM 78.1 °F - 19.9 °F 11% 29.93 in 10.0 mi NNW 9.2 mph - N/A   Clear
6:55 PM 76.3 °F - 19.6 °F 12% 29.93 in 10.0 mi NNW 8.1 mph - N/A   Clear
7:15 PM 71.2 °F - 20.8 °F 15% 29.93 in 10.0 mi NNW 5.8 mph - N/A   Clear
7:35 PM 66.2 °F - 22.8 °F 19% 29.93 in 10.0 mi NNW 8.1 mph - N/A   Clear
7:55 PM 61.9 °F - 24.4 °F 24% 29.93 in 10.0 mi NNW 8.1 mph - N/A   Clear
8:15 PM 59.7 °F - 24.4 °F 26% 29.93 in 10.0 mi NNW 5.8 mph - N/A   Clear
8:35 PM 59.9 °F - 25.2 °F 26% 29.93 in 10.0 mi Calm Calm - N/A   Clear
8:55 PM 57.6 °F - 25.7 °F 29% 29.93 in 10.0 mi Calm Calm - N/A   Clear
9:15 PM 55.0 °F - 25.7 °F 32% 29.94 in 10.0 mi Calm Calm - N/A   Clear
9:35 PM 49.6 °F - 23.4 °F 36% 29.93 in 10.0 mi WNW 5.8 mph - N/A   Clear
9:55 PM 51.8 °F - 26.2 °F 37% 29.93 in 10.0 mi West 3.5 mph - N/A   Clear
10:15 PM 48.4 °F - 25.5 °F 41% 29.92 in 10.0 mi West 3.5 mph - N/A   Clear
10:35 PM 48.9 °F - 28.4 °F 45% 29.92 in 10.0 mi West 4.6 mph - N/A   Clear
10:55 PM 47.3 °F - 26.6 °F 45% 29.91 in 10.0 mi West 5.8 mph - N/A   Clear
11:15 PM 46.2 °F 45.0 °F 28.8 °F 51% 29.91 in 10.0 mi West 3.5 mph - N/A   Clear
11:35 PM 45.5 °F 43.2 °F 28.4 °F 51% 29.91 in 10.0 mi WSW 4.6 mph - N/A   Clear
11:55 PM 48.0 °F - 27.7 °F 45% 29.91 in 10.0 mi Calm Calm - N/A   Clear